Location: Chicago
(41.8500°N, 87.6500°W)
Time: 05:39:21
(UTC-06:00)

Envisat - Visible Passes

Search period start: 20 February 2018 00:00
Search period end: 02 March 2018 00:00
Orbit: 764 x 766 km, 98.2° (Epoch: 19 February)

Date Brightness Start Highest point End Pass type
(mag) Time Alt. Az. Time Alt. Az. Time Alt. Az.
20 Feb 3.6 18:32:30 10° SE 18:37:02 34° ENE 18:41:35 10° N visible
20 Feb 4.8 20:11:41 10° SSW 20:16:03 29° W 20:20:27 10° NW visible
21 Feb 4.5 17:57:33 10° E 18:00:41 17° ENE 18:03:49 10° NNE visible
21 Feb 3.3 19:34:08 10° S 19:39:10 64° W 19:44:14 10° NNW visible
22 Feb 3.0 18:57:31 10° SSE 19:02:29 58° ENE 19:07:28 10° N visible
22 Feb 5.6 20:38:40 10° SW 20:41:52 17° W 20:45:04 10° NW visible
23 Feb 3.9 18:21:46 10° ESE 18:25:59 27° ENE 18:30:14 10° N visible
23 Feb 4.4 20:00:11 10° SSW 20:04:51 36° W 20:09:32 10° NNW visible
24 Feb 3.0 19:22:57 10° S 19:28:01 81° WSW 19:33:08 10° NNW visible
25 Feb 3.2 18:46:34 10° SE 18:51:23 46° ENE 18:56:14 10° N visible
25 Feb 5.3 20:26:50 10° SW 20:30:37 21° W 20:34:26 10° NW visible
26 Feb 4.2 18:11:06 10° ESE 18:14:57 22° ENE 18:18:49 10° NNE visible
26 Feb 4.0 19:48:48 10° S 19:53:40 46° W 19:58:33 10° NNW visible
27 Feb 2.9 19:11:49 10° SSE 19:16:53 81° ENE 19:21:59 10° N visible
27 Feb 5.9 20:54:45 10° WSW 20:56:30 12° W 20:58:15 10° WNW visible
28 Feb 3.5 18:35:42 10° SE 18:40:19 37° ENE 18:44:58 10° N visible
28 Feb 5.0 20:15:10 10° SSW 20:19:24 26° W 20:23:39 10° NW visible
01 Mar 4.4 18:00:35 10° ESE 18:03:57 18° ENE 18:07:19 10° NNE visible
01 Mar 3.5 19:37:30 10° S 19:42:29 58° W 19:47:30 10° NNW visible
